Temperature
16 15 15 15 15 16 15 15 15 15 16 16 15 15 15 15 15 15 15 15 15 15 15 15 15 15 15 15 15 15 15 15 15 15 15 15 14 14 14 14 14 14 14
16 15 15 15 15 15 15 15 15 15 15 15 15 15 15 15 15 15 15 15 15 15 15 14 15 14 14 15 15 15 15 15 15 15 14 14 14 14 14 14 14 14 14
16 15 15 15 15 15 15 15 15 15 15 15 15 15 15 15 15 15 15 15 15 14 14 14 14 14 14 14 14 15 15 15 15 14 14 13 14 14 14 14 14 14 14
15 15 15 15 15 15 15 15 15 15 15 15 15 15 15 15 15 15 15 14 14 14 14 14 14 14 14 14 14 14 14 14 14 14 13 13 13 13 13 14 14 14 14
15 15 15 15 15 15 15 15 15 15 15 15 15 15 15 15 15 14 14 14 14 14 14 14 14 14 14 14 14 14 14 14 14 13 13 13 13 13 13 13 13 13 13
14 14 15 15 15 15 15 15 14 14 14 15 14 14 14 14 14 14 14 14 14 14 14 14 14 14 14 14 14 14 14 14 13 13 13 13 13 13 13 13 13 13 13
14 14 15 15 14 14 14 14 14 14 14 14 14 14 14 14 14 14 14 14 14 14 14 14 14 14 14 14 14 14 14 14 13 13 13 13 13 13 13 13 13 13 13
14 14 14 14 14 14 14 14 14 14 14 14 14 14 14 14 14 14 14 14 14 14 14 14 14 14 14 14 14 14 14 14 13 13 12 12 13 13 13 12 13 12 12
14 14 14 14 14 14 14 14 14 14 14 14 14 14 14 14 14 14 14 14 14 14 14 14 14 14 14 14 14 14 14 13 12 12 12 12 12 12 12 12 12 12 12
13 13 13 14 13 14 14 14 14 14 14 14 14 14 14 14 14 14 14 14 14 13 13 13 14 14 14 14 14 13 13 13 12 12 12 12 12 12 12 12 12 12 12
13 13 13 13 13 13 13 13 13 13 13 13 13 13 13 13 13 13 13 13 13 13 13 13 13 13 13 13 13 13 13 12 12 12 12 12 12 12 12 12 12 12 12
13 13 13 13 13 13 13 13 13 13 13 13 13 13 13 13 13 13 13 13 13 13 13 13 13 13 13 12 13 13 12 12 11 11 12 12 12 12 12 12 11 11 11
12 12 13 13 13 13 13 13 13 13 13 13 13 13 13 13 13 13 13 13 13 13 13 13 13 12 12 12 12 12 12 11 11 11 11 12 11 11 11 11 11 11 11
12 12 12 12 12 12 12 13 13 13 13 13 13 13 13 13 12 12 12 12 12 12 12 12 12 12 12 12 12 12 11 11 11 11 11 11 11 11 11 11 11 11 11
12 12 12 12 12 12 12 12 12 12 12 12 12 12 12 12 12 12 12 12 12 12 12 12 12 12 12 12 12 11 11 11 11 11 11 11 11 11 11 11 11 11 11
11 11 11 11 12 12 12 12 12 12 12 12 12 12 12 12 12 12 12 12 12 11 11 11 11 11 11 11 11 11 11 11 11 10 11 11 11 11 11 10 10 10 10
11 11 11 11 11 11 11 12 12 12 12 12 12 12 12 12 12 12 12 11 11 11 11 11 11 11 11 11 11 11 11 11 10 10 10 10 10 11 10 10 10 10 10
10 10 10 10 11 11 11 11 11 11 11 11 11 11 11 11 11 11 11 11 11 11 11 11 11 11 11 11 10 10 10 11 10 10 10 10 10 10 10 10 10 10 10
10 10 10 10 10 10 10 10 10 11 11 11 11 11 11 11 11 11 11 11 11 11 11 10 10 10 10 10 10 10 10 10 10 10 10 10 10 10 10 10 10 10 10
9 10 10 10 10 10 10 10 10 10 10 10 10 10 10 10 10 10 10 10 10 10 10 10 10 10 10 10 10 10 10 10 10 10 10 10 10 10 10 10 9 10 10
9 9 9 9 9 9 9 9 9 9 9 9 10 10 10 10 10 10 10 10 10 10 10 10 10 9 9 9 9 9 9 9 9 10 10 9 9 9 9 9 9 9 9
8 8 8 8 9 9 9 9 9 9 9 9 9 9 9 9 9 9 9 10 10 9 9 9 9 9 9 9 9 8 8 8 9 9 9 9 9 9 9 9 9 9 9
7 7 8 8 8 8 8 8 8 8 8 8 8 8 9 9 9 9 9 9 9 9 9 9 9 9 9 9 9 8 8 9 9 9 9 9 9 9 9 9 9 9 9
7 7 7 7 8 8 8 7 7 7 8 8 8 8 8 8 8 8 8 8 8 9 9 9 9 9 8 8 8 8 8 9 8 8 8 9 9 9 9 9 9 9 9
6 7 7 7 7 7 7 7 7 7 7 7 7 7 7 8 8 8 8 8 8 8 8 8 8 8 8 8 8 8 8 8 8 8 8 8 8 8 8 8 8 8 8
6 6 6 6 6 6 6 6 6 6 6 6 7 7 7 7 7 7 7 7 8 8 8 8 8 8 8 8 8 8 8 7 7 7 7 7 7 8 8 8 8 8 8
Wind_Speed
5 6 9 9 10 11 11 11 12 12 12 12 12 12 12 12 12 12 12 12 12 12 12 12 12 13 13 13 14 14 14 14 14 14 14 14 14 14 13 12 12 14 14
6 8 9 9 10 11 11 11 11 12 11 11 12 11 12 12 12 12 12 12 11 12 12 12 12 12 13 13 13 13 13 13 13 12 12 13 14 13 13 12 12 13 13
7 8 9 10 11 11 11 11 11 11 11 11 11 11 11 12 12 12 12 11 11 11 12 12 12 12 12 12 12 12 12 12 12 10 8 10 12 13 12 12 13 13 13
7 7 8 9 10 10 11 10 11 11 11 11 11 11 11 11 12 12 12 11 11 11 11 11 11 11 11 11 11 11 12 11 10 6 8 9 10 11 11 11 11 11 11
7 7 8 8 10 10 11 10 10 11 11 11 11 11 11 11 11 11 11 11 11 11 11 10 11 11 11 11 11 11 11 10 7 6 8 8 9 10 10 10 10 10 10
7 7 8 8 8 10 10 10 10 11 11 11 11 11 11 11 11 11 11 11 11 11 11 10 10 10 10 10 10 10 9 8 6 7 7 7 8 9 9 10 9 9 9
6 6 7 7 7 8 10 10 10 11 10 10 10 11 11 11 10 11 10 11 11 11 11 10 10 10 9 9 9 9 8 5 5 6 6 7 8 8 8 9 9 8 8
5 5 6 6 6 6 8 9 9 10 10 10 10 10 11 11 11 10 10 10 10 10 10 10 10 10 9 9 9 8 7 4 5 5 6 6 7 7 7 7 7 7 7
4 4 5 5 5 5 6 7 8 9 10 10 10 10 10 11 11 11 11 10 10 10 10 10 10 9 9 9 8 8 6 3 3 4 5 5 7 6 6 6 6 6 6
3 3 3 4 4 5 5 5 6 8 9 10 11 11 10 11 11 11 11 10 10 10 10 9 9 9 9 8 8 7 5 3 4 4 3 5 6 5 6 6 6 5 5
3 3 3 3 3 4 4 5 4 6 8 10 10 11 10 10 10 10 10 10 10 10 10 9 9 9 9 8 7 6 4 3 3 3 3 5 5 4 4 5 4 4 4
5 4 4 4 3 3 3 4 4 4 7 8 9 10 9 8 8 8 9 10 10 10 10 9 9 9 7 6 6 5 3 3 3 2 3 4 3 4 4 4 3 3 3
5 4 4 4 4 4 3 3 3 3 5 6 8 9 8 7 7 7 7 8 9 9 8 9 8 7 6 4 4 4 3 3 2 2 3 3 2 3 3 3 3 3 3
4 4 4 4 4 5 4 3 3 3 3 5 6 8 7 5 6 6 5 6 7 6 6 7 6 6 6 6 5 4 4 3 2 2 2 2 2 2 3 3 3 3 3
4 4 4 4 4 4 4 3 3 3 4 5 5 6 8 6 6 6 5 6 6 6 6 6 6 6 6 6 5 5 4 4 4 3 2 2 2 3 3 4 3 3 3
4 3 3 3 4 4 4 4 3 3 3 4 5 6 7 7 6 6 6 6 6 6 6 6 7 6 6 5 5 5 5 5 5 4 3 3 3 3 4 4 4 4 3
3 3 3 3 3 4 4 4 3 3 3 4 5 6 6 7 7 7 6 6 6 7 7 6 6 6 5 5 6 6 5 5 5 5 5 4 4 4 4 4 5 4 4
3 2 2 2 3 3 3 3 2 3 3 3 4 4 5 6 7 7 6 6 7 7 7 6 6 6 5 5 5 5 5 4 5 5 5 5 4 5 5 5 5 5 5
3 2 2 2 3 3 3 2 2 2 3 3 4 4 5 6 6 5 6 6 8 7 6 6 6 6 6 5 5 4 4 5 5 5 6 5 5 5 5 5 5 5 5
2 2 1 2 3 3 3 2 2 2 2 2 3 4 5 5 6 5 5 6 7 6 6 6 6 6 5 5 4 4 4 5 5 5 6 5 6 6 6 6 6 5 6
1 1 1 1 2 2 3 3 3 3 3 3 3 3 4 5 6 6 5 5 6 6 7 8 6 7 5 5 4 3 4 6 6 6 6 6 6 7 7 7 6 6 6
2 1 2 2 2 3 3 3 3 2 2 3 3 3 4 4 6 6 6 5 6 5 7 8 7 5 5 6 5 4 4 5 6 6 6 6 7 6 7 7 7 7 7
3 3 3 3 3 3 3 3 2 2 2 2 3 3 4 5 5 6 7 6 6 6 6 7 8 8 6 6 6 5 4 5 3 5 7 7 7 6 6 7 8 8 8
4 3 3 3 3 2 3 4 5 4 4 4 3 3 4 4 5 6 6 7 7 6 7 7 7 7 7 6 6 6 5 3 4 3 5 6 7 7 8 7 7 8 9
4 3 3 3 3 3 3 4 5 5 4 3 3 4 4 4 4 5 6 6 6 6 7 7 7 7 7 6 5 5 6 4 6 5 5 5 5 6 7 8 7 7 8
4 4 3 3 3 3 3 3 5 6 5 5 5 4 4 3 3 4 4 5 6 6 6 6 7 8 7 8 7 6 5 5 6 6 7 7 6 6 6 7 7 7 8
Wind_Direction
158 159 159 158 152 148 143 141 141 138 138 139 138 135 131 128 127 125 120 115 113 111 108 106 104 100 97 93 90 90 90 89 87 85 85 85 85 86 82 77 78 79 76
150 157 157 159 156 153 149 144 143 142 141 142 142 138 135 134 131 128 124 120 119 117 113 109 105 102 98 95 93 92 91 89 89 87 88 89 85 86 82 74 68 75 75
143 148 155 158 155 156 153 147 143 142 145 146 143 141 140 139 137 133 128 125 123 122 117 112 107 105 102 98 96 95 94 93 89 92 100 95 89 86 85 81 78 77 76
147 150 151 151 155 156 154 152 149 147 146 146 144 144 142 144 142 138 134 130 126 124 120 116 112 109 106 103 101 99 96 94 92 98 95 91 91 86 85 84 82 79 77
146 149 143 142 152 152 153 154 153 152 150 150 148 146 145 142 142 141 139 135 131 127 123 120 116 113 109 108 106 104 101 97 96 95 89 91 90 86 85 84 83 83 80
147 147 139 139 143 152 154 156 156 154 154 155 153 152 149 146 142 140 139 138 135 132 128 123 118 114 114 113 111 109 108 107 112 92 90 90 92 90 88 86 85 85 85
145 144 141 139 136 145 154 158 160 160 161 160 158 156 154 150 146 144 142 142 138 135 133 129 126 122 122 120 117 114 110 107 102 97 92 90 91 93 93 92 87 85 84
147 145 139 135 141 137 153 159 163 164 165 165 162 160 158 157 154 152 148 147 145 142 139 136 133 130 127 125 122 118 115 119 112 102 97 96 95 95 95 94 91 88 83
148 151 149 151 146 147 147 161 168 170 169 166 164 162 161 163 161 159 156 153 152 149 145 144 142 138 132 127 124 120 114 119 124 107 103 100 102 103 99 98 97 91 85
156 163 166 164 164 161 162 153 170 176 175 172 167 164 162 163 164 163 163 158 157 155 152 152 146 142 137 130 127 125 127 159 124 118 113 106 111 110 106 105 98 96 93
176 179 177 184 184 178 172 159 164 180 180 179 174 164 167 173 173 172 170 163 162 160 159 156 151 145 141 136 132 134 155 157 131 118 110 107 123 121 119 114 106 102 105
196 194 193 198 196 185 178 173 180 190 191 191 185 177 180 179 177 173 163 164 163 162 163 160 152 155 165 160 151 162 169 164 151 135 111 108 128 136 133 130 125 127 122
206 205 204 205 202 196 191 187 183 192 197 196 193 185 182 180 178 177 173 173 174 172 174 166 172 180 182 175 175 181 182 177 167 152 126 125 146 150 144 140 137 138 143
216 219 216 212 210 209 200 196 193 201 211 200 194 192 186 183 184 182 184 184 186 183 184 185 188 187 187 186 187 187 188 193 191 177 140 151 196 191 174 156 151 150 143
224 225 222 219 216 212 205 205 199 206 219 211 200 197 194 192 190 185 185 187 189 188 189 193 192 190 193 195 198 197 197 204 206 203 174 167 219 221 198 178 172 172 164
236 232 224 221 222 213 206 206 207 211 217 215 205 203 201 199 194 190 193 194 194 196 198 199 198 195 199 199 201 205 210 214 216 215 211 190 204 226 221 207 196 193 186
249 237 224 212 212 214 215 213 215 214 220 219 212 206 203 204 199 194 197 200 198 197 200 199 199 199 201 201 207 210 216 221 222 223 222 219 209 209 220 224 213 211 206
269 255 230 211 210 214 217 214 213 214 221 220 217 210 205 204 205 199 199 202 200 194 197 199 197 197 201 207 211 211 215 218 227 226 224 223 220 214 210 216 219 223 221
276 258 237 218 212 211 217 214 203 207 220 216 217 213 213 207 202 205 206 202 197 194 196 198 203 200 203 208 214 219 221 221 224 223 221 219 217 218 217 202 214 230 233
285 265 253 236 230 217 203 210 208 210 223 220 220 216 216 213 206 206 209 207 200 197 199 199 202 205 207 203 206 221 229 230 225 223 221 217 216 218 222 221 220 223 231
316 281 268 266 261 228 204 207 219 230 228 226 228 227 220 216 210 211 209 205 205 207 207 204 203 203 204 195 199 221 230 230 228 221 219 220 216 217 222 224 225 230 231
291 292 277 260 253 246 237 227 230 233 230 229 230 224 223 221 215 214 211 207 207 213 210 205 203 204 208 201 203 212 225 222 221 224 223 226 226 220 224 227 229 233 237
282 284 281 265 251 250 243 228 213 218 221 224 225 229 232 229 228 224 219 217 211 213 215 210 205 207 209 208 211 212 224 231 223 215 223 225 225 225 226 229 233 233 235
284 281 272 268 267 256 236 224 221 225 232 239 235 237 242 238 237 235 228 223 221 217 219 218 211 210 209 211 215 227 241 261 234 227 215 222 229 232 232 230 232 231 231
291 287 276 269 264 254 238 232 225 231 238 239 237 240 242 242 241 243 235 229 227 225 224 221 217 214 214 215 216 215 224 237 243 244 247 235 232 233 234 233 232 230 228
305 300 289 278 275 268 251 242 233 230 230 230 233 239 243 245 241 245 243 234 229 227 225 223 220 218 218 221 221 219 219 220 223 232 245 246 248 242 236 234 231 227 226
Height
1519 1520 1521 1523 1525 1526 1527 1528 1529 1530 1530 1531 1532 1532 1533 1534 1534 1534 1535 1535 1536 1536 1537 1537 1537 1537 1537 1537 1537 1537 1537 1537 1537 1537 1537 1537 1538 1538 1538 1538 1539 1539 1538
1518 1520 1521 1523 1525 1526 1527 1528 1529 1530 1531 1532 1532 1533 1534 1534 1535 1535 1536 1536 1537 1537 1538 1538 1538 1538 1539 1539 1538 1538 1538 1538 1539 1539 1539 1539 1539 1539 1540 1540 1540 1540 1540
1518 1519 1521 1523 1525 1526 1528 1529 1530 1530 1531 1532 1533 1534 1534 1535 1535 1536 1537 1537 1538 1538 1539 1539 1539 1539 1540 1540 1540 1540 1540 1540 1540 1540 1541 1541 1541 1541 1541 1541 1541 1541 1541
1518 1519 1521 1523 1525 1526 1528 1529 1530 1531 1532 1532 1533 1534 1535 1535 1536 1537 1537 1538 1538 1539 1539 1540 1540 1540 1541 1541 1541 1541 1541 1541 1541 1542 1543 1543 1543 1542 1542 1542 1542 1542 1542
1518 1520 1521 1523 1524 1526 1528 1529 1530 1531 1532 1533 1533 1534 1535 1536 1536 1537 1538 1538 1539 1540 1540 1540 1541 1541 1541 1542 1542 1542 1542 1543 1543 1543 1544 1544 1544 1543 1543 1543 1543 1543 1543
1518 1520 1521 1522 1524 1526 1527 1529 1530 1531 1532 1533 1534 1534 1535 1536 1537 1537 1538 1539 1539 1540 1540 1541 1541 1542 1542 1542 1543 1543 1543 1544 1544 1545 1545 1545 1545 1544 1544 1544 1544 1544 1544
1518 1520 1521 1522 1524 1525 1527 1528 1529 1530 1531 1533 1533 1534 1535 1536 1537 1537 1538 1539 1539 1540 1541 1541 1541 1542 1542 1543 1543 1543 1544 1544 1545 1545 1545 1546 1545 1545 1545 1545 1544 1544 1544
1518 1519 1521 1522 1523 1525 1526 1527 1529 1530 1531 1532 1533 1534 1535 1536 1536 1537 1538 1539 1539 1540 1541 1541 1542 1542 1543 1543 1544 1544 1544 1545 1545 1546 1546 1546 1546 1545 1545 1545 1545 1545 1545
1518 1519 1520 1521 1523 1524 1525 1526 1528 1529 1530 1531 1532 1533 1534 1535 1536 1537 1537 1538 1539 1540 1540 1541 1542 1542 1543 1543 1544 1544 1544 1545 1546 1546 1546 1546 1546 1546 1546 1545 1545 1545 1545
1517 1518 1519 1520 1522 1523 1524 1525 1526 1528 1529 1530 1531 1533 1534 1535 1535 1536 1537 1538 1539 1539 1540 1541 1541 1542 1542 1543 1544 1544 1545 1545 1546 1546 1546 1546 1546 1546 1546 1546 1545 1545 1545
1515 1516 1518 1519 1520 1522 1523 1524 1525 1526 1528 1529 1530 1531 1532 1534 1535 1535 1536 1537 1538 1539 1539 1540 1541 1541 1542 1543 1543 1544 1545 1545 1546 1546 1546 1546 1546 1546 1546 1545 1545 1545 1545
1514 1515 1516 1517 1518 1520 1521 1522 1523 1524 1526 1527 1528 1530 1531 1532 1533 1534 1535 1536 1537 1538 1539 1539 1540 1541 1542 1542 1543 1543 1544 1545 1545 1545 1545 1545 1545 1545 1545 1545 1545 1545 1545
1512 1513 1514 1515 1516 1517 1519 1520 1521 1522 1523 1525 1526 1527 1529 1530 1531 1532 1533 1534 1535 1536 1537 1538 1539 1540 1541 1541 1542 1542 1543 1544 1544 1544 1544 1544 1544 1544 1544 1544 1544 1544 1544
1510 1511 1512 1513 1514 1515 1516 1517 1518 1519 1521 1522 1523 1525 1526 1527 1528 1530 1531 1532 1533 1534 1535 1536 1537 1538 1539 1540 1540 1541 1541 1542 1542 1542 1542 1542 1543 1543 1543 1543 1543 1543 1543
1508 1509 1509 1510 1512 1513 1514 1515 1516 1517 1518 1519 1521 1522 1523 1524 1525 1527 1528 1529 1530 1532 1533 1534 1535 1536 1537 1538 1538 1539 1540 1540 1540 1541 1541 1541 1541 1541 1542 1542 1541 1541 1541
1505 1506 1506 1507 1508 1510 1511 1512 1513 1514 1514 1516 1517 1519 1520 1521 1522 1523 1525 1527 1528 1529 1530 1532 1533 1533 1534 1535 1536 1537 1538 1538 1538 1539 1539 1539 1539 1539 1540 1540 1540 1540 1540
1503 1503 1504 1505 1506 1507 1508 1509 1509 1510 1511 1513 1514 1516 1517 1518 1519 1520 1522 1523 1525 1526 1528 1529 1530 1531 1532 1532 1533 1534 1535 1536 1536 1536 1537 1537 1537 1537 1537 1538 1538 1538 1538
1500 1501 1501 1502 1503 1504 1505 1505 1506 1507 1508 1509 1510 1512 1513 1514 1516 1517 1518 1520 1521 1523 1524 1525 1527 1528 1529 1530 1530 1531 1532 1532 1533 1533 1534 1534 1534 1534 1535 1535 1535 1535 1535
1497 1498 1499 1499 1500 1501 1502 1502 1503 1504 1505 1506 1507 1508 1509 1511 1512 1513 1515 1516 1518 1519 1520 1522 1523 1524 1525 1526 1527 1528 1529 1529 1530 1530 1530 1531 1531 1531 1532 1532 1532 1532 1532
1494 1495 1496 1496 1497 1497 1498 1499 1500 1501 1501 1502 1503 1504 1505 1507 1508 1509 1511 1512 1514 1515 1516 1518 1519 1520 1522 1523 1524 1525 1525 1526 1526 1526 1527 1527 1528 1528 1528 1529 1529 1529 1529
1491 1491 1492 1493 1493 1493 1494 1495 1496 1497 1497 1498 1499 1500 1501 1502 1504 1505 1507 1508 1509 1511 1512 1514 1515 1516 1518 1519 1521 1521 1521 1522 1522 1522 1523 1523 1524 1525 1525 1525 1526 1526 1525
1488 1488 1489 1489 1489 1490 1490 1492 1492 1493 1494 1494 1495 1496 1497 1498 1499 1500 1502 1503 1505 1506 1508 1509 1511 1512 1513 1515 1517 1518 1518 1519 1517 1518 1519 1519 1520 1521 1521 1522 1522 1522 1522
1485 1485 1486 1486 1486 1486 1487 1488 1489 1489 1490 1491 1491 1492 1493 1494 1495 1496 1497 1499 1500 1502 1503 1504 1506 1507 1508 1510 1512 1514 1515 1514 1514 1514 1514 1515 1516 1516 1517 1517 1518 1518 1518
1482 1483 1483 1483 1483 1483 1483 1483 1484 1484 1485 1486 1487 1488 1489 1490 1491 1492 1493 1494 1495 1497 1498 1499 1501 1502 1504 1505 1507 1508 1510 1510 1511 1510 1510 1511 1511 1512 1512 1512 1513 1513 1513
1479 1479 1479 1479 1479 1480 1480 1480 1480 1481 1482 1482 1483 1484 1485 1485 1486 1487 1488 1489 1491 1492 1493 1494 1496 1497 1498 1500 1501 1503 1504 1505 1506 1507 1506 1506 1507 1507 1507 1507 1508 1508 1508
1476 1476 1475 1475 1475 1476 1476 1476 1476 1477 1477 1478 1478 1479 1480 1481 1481 1482 1483 1484 1485 1487 1488 1489 1490 1492 1493 1495 1496 1497 1498 1500 1501 1502 1502 1502 1502 1502 1502 1502 1502 1503 1503